Simultaneous Nadir Overpasses (SNOs) Predictions

Prediction of SNOs between GOES-15 and TERRA Satellite Orbit:

Table of predicted SNOs for the next 14.0 days since TLE Epoch: 6/14/2024
Index Date Time (GOES-15) GOES-15 Lat,Lon TERRA Lat,Lon Distance(km) Time Diff (sec)
1 06/16/2024 17:35:34 0.17, 61.33 0.42, 62.47 129.52 80
2 06/17/2024 05:58:08 -0.14, 61.30 0.63, 57.64 416.29 80
3 06/19/2024 05:38:03 -0.15, 61.28 -0.26, 61.83 62.42 80
4 06/19/2024 18:00:46 0.13, 61.31 -0.79, 56.96 494.23 80
5 06/21/2024 17:40:41 0.14, 61.30 0.14, 61.16 16.48 80
6 06/23/2024 17:23:15 0.16, 61.30 1.02, 65.36 461.17 80
7 06/24/2024 05:45:48 -0.13, 61.27 0.03, 60.52 84.99 80
8 06/26/2024 05:25:43 -0.16, 61.28 -0.88, 64.73 391.95 80
9 06/26/2024 17:48:24 0.12, 61.31 -0.19, 59.86 164.96 80
10 06/28/2024 17:28:17 0.14, 61.31 0.69, 64.07 312.34 80
